Regional Weather Roundup
Issued by NWS

Home | Current Version | Previous Version | Text Only | Print | Product List | Glossary Off
Versions: 1 2 3 4 5 6 7 8 9 10 11 12 13 14 15 16 17 18 19 20 21 22 23 24 25 26 27 28 29 30 31 32 33 34 35 36 37 38 39 40 41 42 43 44 45 46 47 48 49 50

000
ASUS43 KMPX 261510
RWRMN
WEATHER ROUNDUP FOR MINNESOTA
NATIONAL WEATHER SERVICE TWIN CITIES/CHANHASSEN MN
1000 AM CDT THU MAR 26 2015


NOTE: "FAIR" INDICATES FEW OR NO CLOUDS BELOW 12,000 FEET WITH NO
SIGNIFICANT WEATHER AND/OR OBSTRUCTIONS TO VISIBILITY. N/A MEANS
CURRENT SKY AND/OR WEATHER CONDITIONS ARE NOT AVAILABLE.

MNZ060>063-068>070-261600-
   Twin Cities Metro

CITY           SKY/WX    TMP DP  RH WIND       PRES   REMARKS
TWIN CITIES    CLOUDY    30  19  63 NW14      30.11S WCI  19
ST PAUL        CLOUDY    31  18  58 NW13      30.12R WCI  21
CRYSTAL        CLOUDY    32  17  54 N9        30.10S WCI  24
BLAINE         CLOUDY    32  19  59 N15       30.10S WCI  22
LAKEVILLE      CLOUDY    27  19  74 NW10      30.11R WCI  17
EDEN PRAIRIE   CLOUDY    29  19  66 NW13      30.10S WCI  19
SOUTH ST PAUL  CLOUDY    32  19  58 NW10G16   30.11R WCI  23
LAKE ELMO      CLOUDY    32  18  55 N15       30.10R WCI  22
$$
MNZ001>005-007-008-013>017-022>024-027-028-261600-
   Northwest Minnesota

CITY           SKY/WX    TMP DP  RH WIND       PRES   REMARKS
BEMIDJI        FLURRIES  22  13  66 N12       30.17R WCI  11
HALLOCK        SUNNY     23  14  68 N9        30.28R WCI  13
ROSEAU         SUNNY     21  12  68 N9        30.24S WCI  11
WARROAD        PTSUNNY   21  10  63 N12G17    30.23S WCI   9
THIEF RVR FALL SUNNY     23  10  58 N12       30.24R WCI  12
CROOKSTON      MOSUNNY   27  18  69 N12       30.25S WCI  16
FOSSTON        MOSUNNY   25  16  68 N15       30.20R WCI  12
DETROIT LAKES  FLURRIES  25  21  86 N12       30.18R WCI  14
MOORHEAD       CLOUDY    27  21  80 N14       30.24R WCI  15
PARK RAPIDS    CLOUDY    24  15  68 N10       30.14R WCI  14
MAHNOMEN       FLURRIES  22  17  79 N13G21    30.19R WCI  10
$$
MNZ006-009>011-018-025>026-261600-
   North Central Minnesota

CITY           SKY/WX    TMP DP  RH WIND       PRES   REMARKS
BAUDETTE       SUNNY     19   8  62 N15       30.19R WCI   5
FLAG ISLAND    SUNNY     16   3  57 N13       30.23R WCI   2
INTL FALLS     PTSUNNY   17   5  59 NE12      30.18R WCI   4
WASKISH        LGT SNOW  21  16  79 NW10      30.19R WCI  10
BIG FORK       FLURRIES  19  10  68 N7        30.16R WCI  10
LONGVILLE      CLOUDY    21  12  68 N5        30.15R WCI  15
GRAND RAPIDS   CLOUDY    19   9  63 N18       30.13R WCI   4
CRANE LAKE     SUNNY     16   3  57 N12G20    30.18R WCI   3
ORR            MOSUNNY   18   3  53 NW6       30.11F WCI   9
COOK           SUNNY     16   5  62 N12G17    30.14R WCI   3
WALKER         PTSUNNY   21   9  61 N8G16     30.15S WCI  11
$$
MNZ012-019>021-037-261600-
   Northeast Minnesota

CITY           SKY/WX    TMP DP  RH WIND       PRES   REMARKS
DULUTH         MOSUNNY   25  12  58 N16G26    30.05R WCI  12
ELY            MOSUNNY   16   5  62 N9G16     30.09S WCI   4
HIBBING        FLURRIES  18   8  65 NW18      30.12R WCI   2
EVELETH        FLURRIES  19  10  68 N16G22    30.11R WCI   5
DULUTH HARBOR  PTSUNNY   28  16  59 N13       30.13R WCI  18
TWO HARBORS    MOSUNNY   27  14  59 N12G21    30.06R WCI  16
SILVER BAY     CLOUDY    25  12  58 N9        30.06R WCI  15
GRAND MARAIS     N/A     21   7  54 NW8       30.10R WCI  11
G MARAIS ARPRT PTSUNNY   14   3  62 NW14G21   29.99R HAZE    WCI  -1
$$
MNZ029>031-032-039>041-046>048-054>057-064-261600-
   West Central Minnesota

CITY           SKY/WX    TMP DP  RH WIND       PRES   REMARKS
FERGUS FALLS   MOSUNNY   25  16  68 N10G23    30.23S WCI  15
WHEATON        PTSUNNY   25  19  80 NW12      30.23S WCI  14
MORRIS         CLOUDY    27  19  74 N17       30.18S WCI  14
ALEXANDRIA     PTSUNNY   26  17  68 N17G23    30.16S WCI  13
ELBOW LAKE     PTSUNNY   24  19  78 N13       30.19S WCI  13
WADENA         CLOUDY    23  18  80 NW10      30.15R WCI  12
GLENWOOD       MOSUNNY   25  18  74 N15       30.16S WCI  12
APPLETON       SUNNY     30  21  69 N16       30.20S WCI  19
BENSON         SUNNY     28  19  69 N12       30.19R WCI  18
ORTONVILLE     CLOUDY    28  19  69 N10       30.20F WCI  19
MADISON        PTSUNNY   30  23  74 N13       30.20S WCI  20
WILLMAR        FAIR      27  19  74 NW16      30.17S WCI  14
$$
MNZ033>034-036-042>043-049>051-058-059-261600-
   Central Minnesota

CITY           SKY/WX    TMP DP  RH WIND       PRES   REMARKS
ST CLOUD       CLOUDY    28  18  66 NW14      30.12R WCI  17
SAUK CENTRE    CLOUDY    25  17  71 NW12G17   30.16R WCI  15
PAYNESVILLE    SUNNY     24  19  78 W10G17    30.16R WCI  14
AITKIN         MIX PCPN  27  16  63 NW9G17    30.11R WCI  17
PINE RIVER     FLURRIES  23  16  74 N14G21    30.16S WCI  11
BRAINERD       CLOUDY    25  14  63 N14       30.13R WCI  13
STAPLES        CLOUDY    25  16  68 N15       30.13S WCI  12
LONG PRAIRIE   CLOUDY    27  19  74 NW13      30.15R WCI  16
LITTLE FALLS   CLOUDY    28  19  69 NW6       30.13R WCI  22
LITCHFIELD     SUNNY     28  21  74 NW9       30.15S WCI  20
BUFFALO        CLOUDY    28  19  69 W9        30.14R WCI  20
MAPLE LAKE     CLOUDY    30  22  74 W9        30.14S WCI  21
$$
MNZ037-044-045-052-053-261600-
   East Central Minnesota

CITY           SKY/WX    TMP DP  RH WIND       PRES   REMARKS
PRINCETON      CLOUDY    30  19  64 NW10      30.12R WCI  21
MORA           CLOUDY    30  18  59 N7        30.12R WCI  23
CAMBRIDGE      CLOUDY    32  18  55 N8G17     30.09S WCI  25
RUSH CITY      CLOUDY    29  17  60 NW12G18   30.10S WCI  20
MOOSE LAKE     CLOUDY    27  18  69 N9        30.09R WCI  17
HINCKLEY       CLOUDY    30  18  59 NW13G21   30.10R WCI  20
CLOQUET        FLURRIES  25  12  58 NW15G22   30.09R WCI  12
MCGREGOR       CLOUDY    27  16  63 N14G20    30.12R WCI  15
$$
MNZ071>073-080-081-089-090-097-098-261600-
   Southwest Minnesota

CITY           SKY/WX    TMP DP  RH WIND       PRES   REMARKS
MONTEVIDEO     SUNNY     30  21  69 N18       30.19F WCI  18
GRANITE FALLS  SUNNY     30  21  69 NW17G23   30.20S WCI  18
CANBY          PTSUNNY   31  25  77 N8        30.20S WCI  24
MARSHALL       PTSUNNY   30  19  64 N15       30.19S WCI  19
REDWOOD FALLS  SUNNY     31  19  61 N9G20     30.17S WCI  23
OLIVIA         SUNNY     28  21  74 N15       30.16S WCI  17
PIPESTONE      MOSUNNY   34  25  69 N9        30.15R WCI  26
WINDOM         SUNNY     32  23  69 NW16      30.15S WCI  21
WORTHINGTON    SUNNY     32  25  74 N14       30.16S WCI  22
JACKSON        MOSUNNY   34  27  75 NW16G22   30.15S WCI  23
TRACY          MOSUNNY   31  24  75 N16       30.17S WCI  20
SLAYTON        FAIR      30  23  73 N10       30.16S WCI  21
$$
MNZ065>067-074>077-082>085-091>093-261600-
   South Central Minnesota

CITY           SKY/WX    TMP DP  RH WIND       PRES   REMARKS
MANKATO        SUNNY     28  18  64 NW13      30.14R WCI  18
NEW ULM        SUNNY     28  19  69 NW18G24   30.15S WCI  16
ST JAMES       SUNNY     32  21  64 NW17      30.17R WCI  21
FAIRMONT       SUNNY     32  21  64 NW16      30.14S WCI  21
GLENCOE        SUNNY     29  22  74 NW14      30.14S WCI  18
FARIBAULT      CLOUDY    28  19  69 NW12      30.12R WCI  18
OWATONNA       PTSUNNY   28  19  69 NW14      30.11R WCI  17
WASECA         SUNNY     27  19  74 NW14G20   30.13S WCI  15
ALBERT LEA     SUNNY     28  21  74 NW9G17    30.11R WCI  20
$$
MNZ078>079-086>088-094>096-261600-
   Southeast Minnesota

CITY           SKY/WX    TMP DP  RH WIND       PRES   REMARKS
ROCHESTER      CLOUDY    27  20  75 NW17      30.07R WCI  14
RED WING       CLOUDY    32  19  59 NW9       30.09R WCI  24
STANTON        CLOUDY    29  22  75 W9        30.10S WCI  20
DODGE CENTER   CLOUDY    27  21  80 NW13G21   30.09R WCI  16
WINONA         CLOUDY    34  25  69 NW13      30.07R WCI  25
AUSTIN         SUNNY     28  21  74 NW15G22   30.09S WCI  17
PRESTON        PTSUNNY   27  20  75 NW15      30.07R WCI  16
$$
ABBREVIATIONS USED IN REMARKS
   TC - TEMPERATURES IN CELSIUS
  WCI - WIND CHILL INDEX
   HX - HEAT INDEX
  VSB - VISIBILITY
$$



USA.gov is the U.S. government's official web portal to all federal, state and local government web resources and services.